Location: Climax
(33.2048°N, 96.4497°W)
Time: 19:28:40
(UTC+00:00)

SL-4 R/B - Pass Details

Date: 09 July 2022
Orbit: 425 x 653 km, 51.6° (Epoch: 16 August)

Event Time Altitude Azimuth Distance (km) Brightness Sun altitude
Rises 10:48:29 0° 319° (NW) 2,602 5.4 -7.3°
Reaches altitude 10° 10:50:40 10° 326° (NW) 1,754 4.6 -6.9°
Maximum altitude 10:54:31 46° 40° (NE) 744 3.3 -6.2°
Drops below altitude 10° 10:58:40 10° 115° (ESE) 1,886 5.3 -5.5°
Sets 11:01:05 0° 121° (ESE) 2,823 6.1 -5.1°
